Location: Unspecified
(0.0000°N, 0.0000°E)
Time: 18:55:04
(UTC+00:00)

A-11 Canister half - Pass Details

Date: 23 November 2019
Orbit: 1515 x 1685 km, 47.2° (Epoch: 05 December)

Event Time Altitude Azimuth Distance (km) Brightness Sun altitude
Rises 01:21:46 0° 324° (NW) 4,875 - -59.1°
Reaches altitude 10° 01:24:57 10° 325° (NW) 3,870 - -58.5°
Maximum altitude 01:34:49 77° 51° (NE) 1,633 - -56.6°
Exits shadow 01:41:14 24° 133° (SE) 2,801 10.6 -55.3°
Drops below altitude 10° 01:44:20 10° 136° (SE) 3,743 11.4 -54.7°
Sets 01:47:21 0° 137° (SE) 4,709 12.1 -54.1°
